Regional Weather Roundup
Issued by NWS Northern Indiana

Home | Current Version | Previous Version | Graphics & Text | Print | Product List | Glossary On
Versions: 1 2 3 4 5 6 7 8 9 10 11 12 13 14 15 16 17 18 19 20 21 22 23 24 25 26 27 28 29 30 31 32 33 34 35 36 37 38 39 40 41 42 43 44 45 46 47 48 49 50
000
ASUS43 KIWX 251600
RWRIWX

KIWX WEATHER ROUNDUP
NATIONAL WEATHER SERVICE NORTHERN INDIANA
1200 PM EDT TUE APR 25 2017

NOTE: "FAIR" INDICATES FEW OR NO CLOUDS BELOW 12,000 FEET WITH NO
SIGNIFICANT WEATHER AND/OR OBSTRUCTIONS TO VISIBILITY.

* THESE STATIONS ARE NOT UNDER NWS QUALITY CONTROL. THEY ALSO MAY NOT
  REPORT WEATHER SUCH AS PRECIPITATION OR FOG.

INZ001>027-251700-
NORTHERN INDIANA

CITY           SKY/WX    TMP DP  RH WIND       PRES   REMARKS
GARY*          MOSUNNY   70  48  46 SE8       29.72S
KNOX*          SUNNY     68  30  24 S13       29.74S
SOUTH BEND       N/A    N/A N/A N/A MISG      29.76F
ELKHART*       CLOUDY    66  54  63 SE9       29.76F
GOSHEN         SUNNY     65  51  60 SE15G21   29.77F
MONTICELLO*    SUNNY     69  53  58 S7        29.74S
ANGOLA*        MOSUNNY   63  54  72 SE9       29.81S
FORT WAYNE     CLOUDY    65  53  65 S9        29.80F
PERU/GRISSOM   SUNNY     68  57  68 S12       29.76S

$$
INZ028>050-251700-
CENTRAL INDIANA

CITY           SKY/WX    TMP DP  RH WIND       PRES   REMARKS
LAFAYETTE      SUNNY     69  55  60 S7        29.75S
KOKOMO*        SUNNY     68  55  63 SE10G16   29.78S
MUNCIE*        CLOUDY    68  53  58 SE8       29.79F HAZE
INDIANAPOLIS   MOSUNNY   67  56  67 SE7       29.77F

$$
MIZ043>046-050>051-056>058-064>065-071>073-077>080-251700-
SOUTHWEST LOWER MICHIGAN

CITY           SKY/WX    TMP DP  RH WIND       PRES   REMARKS
BATTLE CREEK   CLOUDY    64  53  67 SE10      29.80F
BENTON HARBOR  SUNNY     69  53  56 S12       29.73F
COLDWATER*     CLOUDY    62  52  70 S9        29.81S
HILLSDALE*     CLOUDY    61  50  67 E10       29.82F
HOLLAND        SUNNY     70  54  56 SE10      29.74F
GRAND RAPIDS   MOSUNNY   67  53  61 SE13      29.77F
KALAMAZOO      CLOUDY    66  50  56 SE9       29.78F
STURGIS*       MOSUNNY   65  53  63 SE10      29.78F
THREE RIVERS*  FAIR      65  52  63 SE9G17    29.78F

$$
OHZ001>008-015>018-024>025-251700-
NORTHWEST OHIO

CITY           SKY/WX    TMP DP  RH WIND       PRES   REMARKS
DEFIANCE       PTSUNNY   62  51  67 VRB5      29.82F
FINDLAY        CLOUDY    67  51  56 SE14      29.82F
TOLEDO EXPRESS CLOUDY    61  50  67 SE8       29.84F
TOLEDO METCALF CLOUDY    64  53  67 SE7       29.84F
LIMA           PTSUNNY   67  52  58 VRB7G16   29.81F

$$
AND FOR LAKE MICHIGAN COASTAL AND OPEN LAKE BUOY OBSERVATIONS

STATION/POSITION TEMP    WIND        PRES    VSBY  WAVE
                 AIR SEA DIR/SP/G                  HT/PER
                 (F)     (DEG/KT/KT) (MB)    (MI)  (FT/S)
CALUMET HARBOR    67     150/  7/ 13 1005.6S
MICHIGAN CITY     66     170/ 12/ 15   N/A
BURNS HARBOR      68     170/  9/ 18 1007.1S
SOUTH LAKE BUOY   46 41  120/ 12/ 12 1007.0          1/ 3
4 MI NW BRIDGMAN  58 50  170/ 10/ 12 1007.1F         1/ 2

$$
&&



USA.gov is the U.S. government's official web portal to all federal, state and local government web resources and services.